Weather Roundup
Issued by NWS Springfield, MO

Home | Current Version | Previous Version | Text Only | Print | Product List | Glossary On
Versions: 1 2 3 4 5 6 7 8 9 10 11 12 13 14 15 16 17 18 19 20 21 22 23 24 25 26 27 28 29 30 31 32 33 34 35 36 37 38 39 40 41 42 43 44 45 46 47 48 49 50
000
NZUS99 KSGF 230407
HRRSGF

HOURLY WEATHER
NATIONAL WEATHER SERVICE SPRINGFIELD MO
1000 PM CST MON DEC 22 2014

......SGF CWA......

CITY           SKY/WX    TMP DP  RH WIND       PRES   REMARKS
SPRINGFIELD    CLEAR     42  39  89 W7        29.60R
JOPLIN         CLEAR     40  37  89 SW6       29.63S
WEST PLAINS    CLOUDY    49  46  90 W9        29.60R
ROLLA          CLOUDY    47  45  93 SW9       29.54R
OSAGE BEACH    MOCLDY    46  39  76 W9        29.57R
BRANSON        MOCLDY    45  43  93 CALM      29.63R

......SURROUNDING SGF CWA......

CITY           SKY/WX    TMP DP  RH WIND       PRES   REMARKS
CHANUTE        CLEAR     39  37  92 SW9       29.62S WCI  33
PARSONS        CLEAR     38  36  92 S5        29.66R WCI  34
COFFEYVILLE    CLEAR     39  37  92 S9        29.66R WCI  33
EMPORIA        CLEAR     36  33  89 SW10      29.59R WCI  28
GROVE OK       CLEAR     41  41 100 W3        29.66R
ROGERS AR      CLEAR     43  43 100 W5        29.64S
SILOAM SPRINGS   N/A     43  37  81 NW5       29.66R VSB 3/4
HARRISON AR    CLOUDY    47  44  90 NW7       29.63R
NEAR YELLVILLE PTCLDY    46  43  87 W5        29.63R

......KANSAS AND MISSOURI......

CITY           SKY/WX    TMP DP  RH WIND       PRES   REMARKS
KANSAS CTY INT PTCLDY    40  37  89 W7        29.52R
DOWNTOWN KC    CLEAR     44  38  79 SW8       29.52R
COLUMBIA       CLOUDY    47  45  93 W13       29.52R
SEDALIA        CLEAR     44  40  85 SW9       29.54R
ST JOSEPH      PTCLDY    41  36  82 W12       29.50R
ST LOUIS       CLOUDY    51  48  89 S9        29.53S
SPIRIT OF STL  LGT RAIN  50  48  93 VRB3      29.52S
KIRKSVILLE     CLOUDY    45  44  97 SW8       29.45S
WICHITA        PTCLDY    43  32  65 W12       29.64R
TOPEKA         CLEAR     43  35  73 SW6       29.55S
OLATHE         CLEAR     41  38  89 SW8       29.54R

......TENNESSEE......

CITY           SKY/WX    TMP DP  RH WIND       PRES   REMARKS
MEMPHIS        CLOUDY    56  54  93 S3        29.66R
NASHVILLE      CLOUDY    52  49  89 S14       29.74R

......ARKANSAS.......

CITY           SKY/WX    TMP DP  RH WIND       PRES   REMARKS
FAYETTEVILLE   CLEAR     45  43  93 CALM      29.64S
FT SMITH       PTCLDY    46  43  89 W5        29.65S
LITTLE ROCK    CLOUDY    56  51  84 NW7       29.66R

......OKLAHOMA.......

CITY           SKY/WX    TMP DP  RH WIND       PRES   REMARKS
TULSA          PTCLDY    43  39  86 NW5       29.66S
PONCA CITY     CLEAR     42  33  70 SW7       29.66R
MCALESTER      MOCLDY    47  41  80 N3        29.66S
OKLAHOMA CITY  MOCLDY    43  34  70 NW7       29.66F

......IOWA............

CITY           SKY/WX    TMP DP  RH WIND       PRES   REMARKS
DES MOINES     DRIZZLE   40  37  89 E7        29.44F FOG
QUAD CITIES    CLOUDY    42  40  92 E8        29.49F FOG

......ILLINOIS........

CITY           SKY/WX    TMP DP  RH WIND       PRES   REMARKS
QUINCY         LGT RAIN  46  45  96 S10       29.48R
CHICAGO        LGT RAIN  40  39  97 SE14      29.62F FOG     WCI  32



USA.gov is the U.S. government's official web portal to all federal, state and local government web resources and services.